This demonstration page uses our WeatherBlox Daily Observations layout. Learn more.

Left ArrowRight Arrow

Hourly Observations for August 23, 2015

Temp ( °F °C ) Dew Point ( °F °C ) Humidity (%) Winds ( mph kmh ) Pressure ( in mb ) Visibility ( mi km ) Precip ( " mm )
12:53 am 00:53 Clear 72 22.2 56 13.3 57 57 Calm 29.86 1011 10 16 0.00 0.00
1:53 am 01:53 Clear 69 20.6 55 12.8 61 61 Calm 29.87 1012 10 16 0.00 0.00
2:53 am 02:53 Clear 67 19.4 54 12.2 63 63 Calm 29.88 1012 10 16 0.00 0.00
3:53 am 03:53 Clear 68 20 53 11.7 59 59 Calm 29.88 1012 10 16 0.00 0.00
4:53 am 04:53 Clear 65 18.3 52 11.1 63 63 Calm 29.89 1012 10 16 0.00 0.00
5:53 am 05:53 Clear 64 17.8 52 11.1 65 65 Calm 29.91 1013 10 16 0.00 0.00
6:53 am 06:53 Sunny 64 17.8 52 11.1 65 65 Calm 29.92 1013 10 16 0.00 0.00
7:53 am 07:53 Sunny 68 20 53 11.7 59 59 Calm 29.93 1014 10 16 0.00 0.00
8:53 am 08:53 Sunny 73 22.8 53 11.7 50 50 Calm 29.94 1014 10 16 0.00 0.00
9:53 am 09:53 Sunny 78 25.6 54 12.2 43 43 S 3 6 29.94 1014 10 16 0.00 0.00
10:53 am 10:53 Sunny 83 28.3 53 11.7 36 36 VRB 6 9 29.93 1014 10 16 0.00 0.00
11:53 am 11:53 Sunny 86 30 52 11.1 31 31 Calm 29.92 1013 10 16 0.00 0.00
12:53 pm 12:53 Sunny 90 32.2 51 10.6 26 26 VRB 3 6 29.91 1013 10 16 0.00 0.00
1:53 pm 13:53 Sunny 92 33.3 51 10.6 25 25 undefined N/A 29.89 1012 10 16 0.00 0.00
2:53 pm 14:53 Sunny 94 34.4 44 6.7 18 18 S 14 22 29.88 1012 10 16 0.00 0.00
3:53 pm 15:53 Sunny 95 35 44 6.7 17 17 S 13 20 29.86 1011 10 16 0.00 0.00
4:53 pm 16:53 Sunny 95 35 43 6.1 17 17 S 13 20 29.85 1011 10 16 0.00 0.00
7:53 pm 19:53 Sunny 87 30.6 50 10 28 28 S 7 11 29.86 1011 10 16 0.00 0.00
8:53 pm 20:53 Clear 83 28.3 53 11.7 36 36 ESE 3 6 29.88 1012 10 16 0.00 0.00
9:53 pm 21:53 Clear 83 28.3 54 12.2 37 37 ENE 3 6 29.90 1013 10 16 0.00 0.00
10:53 pm 22:53 Clear 80 26.7 53 11.7 39 39 Calm 29.90 1012 10 16 0.00 0.00
11:53 pm 23:53 Clear 76 24.4 53 11.7 45 45 Calm 29.91 1013 10 16 0.00 0.00

Powered by AerisWeather